Regional Weather Roundup
Issued by NWS

Home | Current Version | Previous Version | Text Only | Print | Product List | Glossary Off
Versions: 1 2 3 4 5 6 7 8 9 10 11 12 13 14 15 16 17 18 19 20 21 22 23 24 25 26 27

000
ASUS45 KTFX 201110
RWRMT
MONTANA REGIONAL WEATHER ROUNDUP
NATIONAL WEATHER SERVICE GREAT FALLS MT
500 AM MDT FRI OCT 20 2017

NOTE: "FAIR" INDICATES FEW OR NO CLOUDS BELOW 12000 FEET WITH NO
SIGNIFICANT WEATHER AND/OR OBSTRUCTIONS TO VISIBILITY.

MTZ001>007-043-201200-
WEST OF THE DIVIDE

CITY           SKY/WX    TMP DP  RH WIND       PRES   REMARKS
KALISPELL      CLOUDY    44  36  73 S3        29.38R
MISSOULA       PTCLDY    37  28  70 SW7       29.38R WCI  32
BUTTE          CLOUDY    54  16  22 SE9       29.47F
MULLAN PASS    SNOW      31  29  92 NW6       29.47S VSB 1/2 WCI  25
ANACONDA         N/A     50  16  25 SE8       29.44F
DEER LODGE       N/A     55  19  24 SE8       29.43F
EUREKA           N/A     46  36  66 MISG      29.40R
HAMILTON         N/A     55  18  22 S10       29.32F
LIBBY            N/A     45  39  81 CALM      29.42R
PLAINS           N/A     42  33  70 CALM      29.47R
THOMPSON FALLS   N/A     48  40  74 W7        29.55R
$$

MTZ008-052>055-201200-
SOUTHWEST MONTANA

CITY           SKY/WX    TMP DP  RH WIND       PRES   REMARKS
BOZEMAN        PTCLDY    51  20  29 SE10      29.45F
DILLON         MOCLDY    55  16  21 S15G23    29.45F
W YELLOWSTONE  CLEAR     34  16  47 S3        29.65F
ENNIS          PTCLDY    54  18  24 S20G25    29.56S
THREE FORKS      N/A     61  15  16 S15       29.48F
TWIN BRIDGES     N/A     53  17  24 CALM      29.51F
$$

MTZ009-010-012-014-046-048-049-054-201200-
EAST SLOPES AND CENTRAL MONTANA

CITY           SKY/WX    TMP DP  RH WIND       PRES   REMARKS
CUT BANK       CLOUDY    43  21  41 CALM      29.32F
GREAT FALLS    CLOUDY    61  17  18 S14G24    29.35F
MALMSTROM AFB  CLOUDY    59  20  22 S13       29.35F
HELENA         CLOUDY    53  23  31 CALM      29.38F
BOWMANS CRNR     N/A     53  18  25 SW8       29.35F
CHOTEAU          N/A     48  21  34 CALM      29.35F
FAIRFIELD      MOCLDY    52  20  28 SE8       29.33F
POWER          MOCLDY    51  21  30 S8        29.34F
RAYNESFORD       N/A     57  18  21 CALM      29.39F
ULM            MOCLDY    60  20  21 S16       29.34F
$$

MTZ011-013-016-021-045-047-050-051-201200-
NORTH CENTRAL MONTANA

CITY           SKY/WX    TMP DP  RH WIND       PRES   REMARKS
HAVRE          CLOUDY    36  30  79 SE5       29.34F
LEWISTOWN      PTCLDY    47  21  35 S12       29.42F
N BAR RANCH      N/A     46  16  29 NW3       29.50F
CHINOOK          N/A     36  30  80 CALM      29.35S
DENTON           N/A     51  17  25 S13       29.37F
GEYSER           N/A     59  16  18 S15       29.39F
GRASS RANGE      N/A     50  18  27 W8        29.40F
JUDITH GAP       N/A     53  17  24 SE13G20   29.46F
WINIFRED       MOCLDY    58  14  18 SE9       29.39F
$$

MTZ017>020-022>027-061-062-201200-
NORTHEAST MONTANA

CITY           SKY/WX    TMP DP  RH WIND       PRES   REMARKS
GLASGOW        PTCLDY    45  29  53 E14       29.38S
JORDAN           N/A     40  28  62 W7        29.41F
SIDNEY         CLEAR     35  30  82 S5        29.43F
WOLF POINT     PTCLDY    37  27  67 NE7       29.40F WCI  32
MALTA          CLEAR     37  32  81 CALM      29.36F
PLENTYWOOD       N/A     52  28  40 CALM      29.41F
POPLAR           N/A     43  28  56 NW5       29.41F
$$

MTZ028>42-056>058-201200-
SOUTHCENTRAL AND SOUTHEAST MONTANA

CITY           SKY/WX    TMP DP  RH WIND       PRES   REMARKS
BAKER          CLEAR     41  29  62 CALM      29.48F
BILLINGS       PTCLDY    46  23  40 SW7       29.48S
LIVINGSTON     PTCLDY    58  16  19 W13       29.49F
MILES CITY     PTCLDY    41  32  70 SE8       29.46S
BIG TIMBER     CLEAR     55  14  19 CALM      29.51F
FORSYTH          N/A     45  28  53 CALM      29.45F
HARLOWTON        N/A     50  16  25 MISG      29.46F
LAUREL           N/A     50  19  29 MISG      29.48
$$

REGIONAL REPORTS...DAKOTAS

CITY           SKY/WX    TMP DP  RH WIND       PRES   REMARKS
WILLISTON      CLEAR     36  30  79 CALM      29.43F
MINOT            N/A     41  34  76 CALM      29.46F
DICKINSON      CLEAR     41  30  65 S12       29.44F
BEACH            N/A     37  27  65 S8        29.49S WCI  31
CROSBY           N/A     43  30  61 CALM      29.44F
TIOGA            N/A     39  30  70 E5        29.47F
WATFORD CITY     N/A     36  30  80 CALM      29.43F
BISMARCK       CLEAR     48  43  82 SE9       29.50F
GRAND FORKS      N/A     50  47  89 S10       29.60F
FARGO            N/A     57  49  74 SE13      29.64F
BUFFALO SD       N/A     55  26  32 W6        29.45F
RAPID CITY     PTCLDY    47  29  49 CALM      29.59F
$$

REGIONAL REPORTS...WYOMING/IDAHO/WASHINGTON

CITY           SKY/WX    TMP DP  RH WIND       PRES   REMARKS
GILLETTE       PTCLDY    60  28  29 SW21G26   29.57F
SHERIDAN       PTCLDY    40  27  59 NW12      29.53F
BUFFALO WY     PTCLDY    65  13  13 SW15G22   29.58F
CODY           CLEAR     49  19  30 S9        29.59F
YELLOWSTONE LA   N/A     25  21  85 NW3       29.75F
IDAHO FALLS    PTCLDY    50  30  46 S8        29.55F
SALMON         CLEAR     32  23  69 CALM      29.43F
BOISE          CLOUDY    50  39  66 NW26G39   29.59R
SPOKANE        CLOUDY    44  42  93 SW20      29.50R
$$

REGIONAL REPORTS...ALBERTA

CITY           SKY/WX    TMP DP  RH WIND       PRES   REMARKS
EDMONTON       CLEAR     34  32  93 W5        29.24S
CALGARY        PTCLDY    37  30  75 W5        29.28S
LETHBRIDGE     CLEAR     37  30  75 SW6       29.32F
MEDICINE HAT   CLOUDY    45  36  70 NE5       29.31F
$$

REGIONAL REPORTS...SASKATCHEWAN

CITY           SKY/WX    TMP DP  RH WIND       PRES   REMARKS
SWIFT CURRENT  CLEAR     43  25  49 S10       29.33F
REGINA         PTCLDY    45  30  57 SE14G20   29.38F
SASKATOON      MOCLDY    45  34  65 SE7       29.34F
$$




USA.gov is the U.S. government's official web portal to all federal, state and local government web resources and services.